sat.trackr.live / text

‹ back to catalog

STARLINK-35643

NORAD 66456 · 2025-262A

PAYLOAD ACTIVE UNKNOWN

§ Identity

Operator
Country
US
Launch date
2025-11-15
Launch site
AFETR
Launch vehicle
Mass (kg)
RCS (m²)

Purposes: comms

External: N2YO · Heavens-Above · Gunter

§ Orbital elements

Epoch: 2026-05-25T04:45:01.946016Z

Period
94.27 min
Inclination
42.9968°
Eccentricity
0.0001060
Mean motion
15.27603447 rev/d
Perigee alt
482.3 km
Apogee alt
483.7 km
Semi-major
6,861.1 km
B*
5.5574e-4
RAAN
224.4232°
Arg perigee
289.2452°
Mean anomaly
70.8285°
Rev number
3,060

§ Raw data

STARLINK-356431 66456U 25262A   26145.19793919  .00015073  00000+0  55574-3 0  99942 66456  42.9968 224.4232 0001060 289.2452  70.8285 15.27603447 30603

JSON: /api/v1/satellites/66456 · /tle

For live sub-satellite position, see the globe view (requires WebGL).

§ Visibility from observer

Set your observer location to see the next 7 days of passes ≥ 10°. The values pass through the URL so the page stays shareable.

No JS? Fill the form by hand. The geolocation button needs JavaScript.